Wind_Speed
18 20 22 24 25 28 30 31 33 34 35 35 35 36 36 36 37 37 36 36 36 36 36 36 35 34 32 31 32 33 35 35 35 36 35 35 35 34 34 33 32 31 29
18 21 22 24 27 28 30 31 33 34 35 35 36 36 36 36 37 38 38 38 37 38 38 37 36 35 33 32 31 31 31 34 36 35 35 35 36 36 36 34 33 32 30
21 23 26 27 29 30 32 33 34 34 35 36 37 38 39 39 39 40 40 39 39 40 40 39 37 35 34 32 31 31 31 32 34 34 36 37 38 36 36 34 34 33 31
25 26 28 30 31 32 33 34 34 35 37 39 40 41 41 41 41 42 41 41 41 41 40 39 37 35 35 34 33 32 32 31 33 35 36 38 38 37 36 35 35 33 31
27 28 29 30 31 33 35 36 36 37 38 40 42 43 43 43 43 43 42 41 40 40 39 37 36 35 34 34 33 33 33 32 33 34 35 36 38 39 36 33 34 33 32
28 28 29 30 31 33 35 36 37 38 39 41 42 43 43 43 42 42 40 39 38 38 37 37 36 35 35 35 34 34 33 33 33 33 34 34 35 38 39 37 34 33 32
27 28 30 31 32 33 34 36 37 38 39 40 41 41 41 41 40 40 39 38 37 37 37 37 36 36 36 36 36 36 36 36 36 35 34 34 33 36 39 39 38 35 33
29 30 31 31 33 34 35 36 37 38 39 39 39 39 39 39 39 39 39 38 38 38 39 39 39 39 39 39 39 39 40 40 40 38 37 36 35 37 39 39 39 37 36
29 30 31 32 34 35 35 36 37 38 39 39 39 39 39 38 38 38 39 39 40 41 42 43 44 44 44 44 44 43 43 43 44 44 43 42 40 39 40 41 40 39 37
30 31 32 34 34 36 36 37 38 38 38 38 39 39 38 38 38 38 38 39 41 43 44 46 47 48 49 50 50 50 49 48 48 48 48 47 44 42 41 41 41 41 40
32 33 34 35 36 37 38 38 39 39 39 39 39 39 39 39 39 39 40 41 42 43 45 47 49 51 52 54 54 54 53 53 53 53 52 52 50 47 45 44 43 43 42
33 34 35 37 38 38 39 40 40 40 40 40 40 40 40 40 40 41 42 43 44 45 46 48 50 53 55 56 57 58 58 58 57 57 57 57 56 53 51 48 45 45 45
35 36 37 38 39 40 41 42 42 42 42 42 42 41 41 42 42 43 43 44 45 46 48 50 52 53 55 57 59 61 61 62 62 62 61 61 61 60 57 54 51 48 47
37 38 39 40 40 41 42 42 42 42 43 43 43 43 42 42 43 43 44 45 46 48 49 50 51 53 55 57 59 60 61 62 63 63 63 64 64 64 63 60 57 54 51
38 39 40 41 41 42 42 43 43 43 43 43 44 43 43 43 43 44 45 46 48 49 49 50 51 52 52 53 55 57 58 58 60 61 61 65 67 67 67 66 62 60 57
38 39 41 42 42 43 43 43 44 44 44 44 44 44 43 43 44 45 46 47 48 48 49 49 48 47 47 47 49 52 54 56 58 59 59 61 66 68 69 69 67 64 61
39 40 41 42 43 44 44 44 45 45 45 45 45 44 44 44 44 45 46 47 48 47 47 46 44 43 43 43 45 46 48 50 53 55 57 58 60 64 68 70 70 68 65
40 41 42 43 44 44 45 46 46 47 47 46 45 44 44 44 44 46 47 47 47 45 44 42 41 40 39 40 41 41 42 43 46 50 52 54 56 59 63 66 68 68 67
41 42 43 43 44 44 45 46 47 48 47 46 45 45 44 44 44 46 46 46 45 43 41 39 38 37 36 35 33 32 33 34 38 42 46 48 50 53 57 60 63 65 65
41 41 42 43 44 45 46 47 48 48 47 46 45 44 43 44 44 45 45 44 42 41 39 37 36 34 31 28 25 23 23 25 30 35 40 44 45 47 50 53 56 60 62
41 42 43 45 46 46 47 48 48 48 47 46 45 43 43 43 44 44 43 42 41 39 37 35 34 31 27 23 20 16 16 20 25 30 34 38 41 43 45 47 50 54 57
42 42 43 45 47 48 48 49 49 48 47 46 44 43 42 43 44 43 41 40 39 37 36 33 30 27 22 18 14 11 11 15 20 25 29 32 35 38 40 42 45 48 52
42 42 43 45 47 48 49 49 49 48 47 45 43 42 42 42 43 41 39 38 37 36 34 31 27 23 19 14 10 7 7 13 18 21 24 27 30 33 35 38 41 44 47
41 42 43 45 47 48 49 50 49 48 46 45 43 42 41 41 42 40 38 37 35 34 32 29 24 19 15 10 6 4 6 12 17 19 21 24 27 28 30 33 37 40 42
42 43 44 45 47 48 49 50 50 48 46 44 42 41 41 41 41 39 37 35 34 32 30 26 22 17 12 8 5 3 6 12 15 17 18 20 23 25 27 29 31 35 37
42 43 44 46 47 48 49 50 50 48 46 44 42 40 40 40 40 38 36 34 33 30 28 25 20 15 11 7 2 3 6 11 14 16 17 18 20 22 24 26 27 30 34
Wind_Direction
290 290 290 289 289 289 288 288 290 291 292 292 292 292 292 292 291 291 290 289 288 288 287 287 287 286 283 279 277 269 259 256 253 252 251 249 248 250 249 247 244 241 238
299 298 297 295 294 293 291 292 293 294 294 294 294 294 294 293 292 291 290 289 288 287 286 285 285 284 281 280 278 272 264 258 253 252 251 248 248 248 248 246 243 240 238
307 304 302 300 299 298 297 297 297 298 298 297 296 297 296 295 293 292 290 289 287 285 284 284 283 282 281 279 274 270 266 259 253 250 248 247 247 247 246 245 242 241 239
310 308 306 305 305 304 303 302 302 302 302 301 301 301 300 298 296 295 293 292 290 287 285 283 281 279 278 278 274 271 268 265 259 252 250 249 247 245 244 243 240 237 236
314 313 312 310 309 308 307 307 306 306 305 304 303 303 302 300 299 297 295 293 290 288 285 282 280 279 277 276 274 271 268 264 262 256 250 248 245 242 239 236 235 234 233
320 318 316 315 313 311 310 310 309 308 307 306 305 304 302 300 299 297 295 293 290 288 286 283 281 278 277 274 271 269 267 263 261 257 249 244 243 240 236 231 230 230 229
325 323 322 320 318 316 314 312 311 310 309 308 306 304 302 300 298 296 294 292 290 289 287 284 282 279 277 275 271 267 265 263 262 259 254 246 242 241 236 232 228 226 226
329 328 326 324 322 320 318 317 315 313 312 310 307 305 302 299 297 295 292 290 288 286 284 283 282 280 278 276 272 268 264 261 260 258 257 251 243 239 236 232 228 225 224
331 329 328 327 325 324 322 320 318 316 313 311 308 305 302 299 296 293 290 288 286 284 283 281 280 278 276 275 272 269 264 261 258 256 255 254 251 247 240 233 228 225 223
332 331 330 328 326 325 323 321 319 317 315 312 309 306 302 298 295 292 290 288 286 285 283 281 279 277 275 273 271 268 264 259 256 254 252 251 250 249 244 237 231 226 224
331 331 330 329 327 325 324 322 320 318 317 314 311 308 304 301 298 295 293 291 289 287 285 282 280 277 275 272 269 266 263 260 255 252 249 248 247 245 243 238 232 228 225
331 330 330 329 327 326 324 323 321 320 318 316 314 310 307 304 301 299 296 295 293 290 287 284 281 278 275 271 268 265 262 259 254 250 247 245 244 242 241 239 234 229 226
330 330 330 329 327 326 325 323 322 321 320 318 316 312 309 306 304 301 300 298 297 294 291 288 285 281 276 272 268 265 262 258 254 249 245 243 241 239 238 237 235 232 228
331 330 329 329 328 327 325 324 323 322 321 319 317 314 311 309 307 305 304 303 301 298 295 293 289 285 280 275 270 266 262 258 253 249 244 240 239 237 237 235 234 233 229
332 331 331 330 330 329 327 326 326 324 323 321 319 316 314 312 310 309 308 307 305 303 300 297 293 289 284 278 272 266 261 255 251 247 243 238 236 235 235 234 233 232 231
333 333 333 333 333 331 330 329 328 327 325 323 321 319 317 315 314 313 312 311 309 307 304 302 298 294 288 281 275 267 261 254 249 245 240 237 234 233 232 233 232 231 231
336 337 337 337 336 334 333 332 331 330 328 326 324 321 320 319 318 317 316 315 314 311 309 306 302 298 291 285 279 271 261 254 247 241 237 235 233 231 230 231 231 230 230
340 340 339 339 338 337 335 334 333 332 330 328 326 324 323 322 321 321 320 319 318 316 313 311 306 302 296 290 283 273 263 253 245 238 234 232 231 230 229 229 229 230 229
341 340 340 340 340 339 338 336 336 334 332 330 328 326 325 325 325 325 324 323 322 320 318 315 311 308 303 297 289 275 263 250 240 234 229 227 228 228 227 227 227 227 227
339 340 340 341 341 341 340 339 337 336 334 331 330 329 328 328 328 328 328 327 326 324 322 319 316 313 309 303 295 279 260 243 233 226 222 221 223 223 223 224 225 225 225
339 340 340 341 342 342 341 340 339 337 335 333 332 331 330 331 331 331 330 331 330 328 326 323 321 318 313 307 298 281 258 236 224 217 215 218 220 221 221 222 222 223 225
339 339 340 341 341 342 342 341 340 338 337 336 334 333 333 333 333 333 333 333 333 333 331 328 325 323 318 313 303 283 255 228 214 209 210 212 214 217 219 219 219 221 222
338 339 340 340 341 341 341 342 341 340 339 337 336 336 336 335 336 336 335 336 336 335 335 334 331 328 324 318 305 283 238 209 200 201 204 207 210 212 214 215 215 217 218
336 338 339 340 340 341 341 342 342 341 340 339 338 338 338 338 338 338 338 338 338 338 338 339 337 334 330 325 309 275 215 193 188 190 196 201 202 203 207 208 210 212 214
333 335 337 339 340 341 341 342 342 343 342 341 340 340 340 340 341 341 341 340 340 341 342 343 343 342 336 326 303 247 202 192 189 189 192 195 197 198 200 203 206 208 211
331 332 335 337 339 340 341 342 342 343 343 342 341 342 343 343 343 343 343 342 342 344 345 347 347 348 347 343 317 208 191 191 190 190 189 190 191 193 196 199 202 203 206
Height
5851 5850 5849 5847 5845 5843 5841 5838 5836 5833 5829 5826 5823 5821 5818 5815 5811 5809 5807 5805 5803 5802 5800 5799 5797 5795 5793 5792 5791 5791 5791 5793 5795 5798 5801 5805 5809 5812 5815 5818 5822 5825 5828
5848 5846 5844 5841 5839 5836 5834 5831 5828 5825 5821 5818 5815 5812 5810 5807 5803 5800 5798 5796 5794 5792 5790 5790 5788 5787 5786 5785 5784 5783 5783 5785 5787 5790 5792 5796 5801 5804 5807 5811 5814 5818 5821
5843 5841 5838 5835 5832 5829 5825 5823 5819 5816 5813 5809 5806 5803 5800 5797 5793 5791 5788 5786 5784 5782 5780 5780 5779 5778 5778 5777 5776 5776 5777 5778 5779 5781 5784 5788 5791 5796 5800 5803 5807 5810 5814
5838 5835 5831 5828 5825 5821 5817 5814 5811 5808 5804 5799 5796 5792 5789 5786 5783 5780 5777 5775 5773 5771 5770 5769 5769 5769 5768 5768 5769 5769 5769 5770 5771 5773 5775 5779 5783 5787 5791 5794 5798 5802 5807
5832 5828 5825 5822 5818 5814 5810 5806 5802 5799 5795 5791 5786 5782 5778 5774 5771 5768 5766 5764 5762 5760 5759 5758 5758 5759 5759 5759 5760 5760 5761 5762 5763 5765 5767 5770 5773 5776 5782 5786 5790 5795 5799
5827 5823 5820 5816 5812 5807 5803 5798 5794 5790 5786 5782 5777 5772 5768 5764 5761 5758 5755 5753 5751 5749 5748 5747 5748 5748 5749 5749 5751 5752 5753 5754 5755 5757 5760 5761 5763 5767 5772 5777 5781 5786 5791
5822 5818 5814 5810 5806 5801 5796 5791 5787 5782 5777 5773 5768 5763 5759 5755 5751 5748 5746 5743 5742 5740 5738 5737 5737 5737 5738 5739 5740 5742 5744 5745 5747 5749 5751 5753 5755 5757 5762 5768 5773 5778 5784
5818 5814 5809 5805 5800 5795 5789 5784 5779 5774 5769 5764 5759 5754 5750 5746 5742 5739 5736 5734 5732 5731 5729 5727 5726 5726 5726 5727 5729 5731 5733 5735 5737 5739 5741 5745 5747 5750 5753 5759 5764 5771 5777
5815 5810 5805 5799 5794 5788 5783 5778 5772 5767 5761 5756 5751 5746 5741 5737 5734 5730 5727 5725 5722 5720 5719 5717 5715 5714 5714 5715 5716 5717 5720 5723 5726 5728 5731 5734 5737 5741 5745 5749 5756 5762 5769
5811 5806 5800 5794 5788 5783 5777 5771 5765 5759 5754 5748 5742 5737 5732 5728 5724 5721 5718 5715 5712 5709 5707 5704 5703 5701 5700 5700 5701 5702 5705 5709 5712 5716 5719 5723 5726 5731 5735 5740 5747 5753 5760
5807 5801 5795 5789 5782 5776 5770 5764 5757 5751 5745 5739 5733 5727 5722 5718 5713 5710 5706 5703 5700 5697 5694 5691 5688 5686 5685 5684 5684 5685 5687 5691 5696 5700 5705 5710 5715 5720 5725 5730 5736 5743 5750
5802 5796 5789 5783 5776 5769 5762 5755 5749 5742 5736 5729 5723 5717 5712 5707 5702 5698 5694 5690 5686 5683 5679 5675 5672 5669 5667 5665 5665 5665 5668 5671 5676 5682 5688 5694 5700 5706 5712 5718 5725 5732 5739
5797 5790 5783 5776 5769 5762 5754 5747 5740 5733 5726 5719 5713 5707 5701 5696 5690 5686 5681 5676 5672 5667 5662 5658 5654 5650 5647 5645 5644 5644 5646 5649 5654 5661 5668 5675 5682 5690 5697 5704 5712 5720 5727
5791 5784 5777 5769 5762 5754 5747 5739 5731 5724 5717 5710 5703 5697 5690 5684 5679 5673 5667 5662 5656 5651 5645 5639 5634 5629 5625 5622 5621 5620 5622 5625 5630 5637 5645 5654 5663 5672 5680 5688 5697 5706 5714
5785 5778 5770 5762 5754 5746 5738 5730 5723 5716 5708 5701 5693 5686 5680 5673 5666 5660 5654 5647 5640 5633 5627 5620 5614 5608 5603 5599 5597 5596 5598 5601 5607 5614 5622 5632 5642 5651 5661 5671 5681 5691 5700
5779 5771 5763 5755 5747 5738 5730 5722 5715 5707 5699 5691 5683 5676 5669 5662 5654 5647 5640 5632 5625 5617 5609 5601 5594 5588 5582 5578 5575 5574 5575 5579 5584 5592 5600 5610 5620 5631 5642 5653 5663 5675 5685
5773 5764 5756 5747 5739 5731 5723 5714 5706 5698 5690 5682 5674 5666 5658 5651 5643 5635 5627 5618 5610 5601 5593 5585 5577 5571 5565 5559 5556 5553 5553 5557 5563 5571 5579 5589 5600 5611 5623 5635 5646 5658 5669
5766 5758 5750 5741 5733 5724 5715 5707 5698 5690 5681 5673 5664 5656 5648 5640 5632 5624 5615 5605 5596 5587 5578 5570 5562 5555 5549 5543 5538 5535 5534 5538 5545 5553 5562 5572 5583 5594 5606 5618 5629 5642 5654
5760 5752 5744 5735 5727 5718 5709 5700 5691 5682 5673 5664 5656 5647 5639 5631 5622 5613 5603 5594 5584 5575 5566 5558 5550 5542 5535 5528 5523 5520 5520 5523 5530 5537 5546 5557 5568 5579 5591 5604 5616 5628 5639
5755 5747 5739 5730 5722 5712 5703 5694 5684 5675 5666 5657 5648 5639 5630 5622 5613 5603 5594 5584 5574 5565 5556 5548 5540 5532 5525 5518 5513 5510 5510 5513 5519 5525 5535 5546 5556 5566 5577 5589 5600 5613 5625
5750 5742 5734 5725 5716 5707 5697 5687 5678 5668 5659 5650 5641 5632 5623 5614 5605 5595 5585 5575 5566 5557 5548 5540 5532 5524 5517 5512 5507 5505 5504 5507 5511 5518 5527 5536 5546 5556 5567 5577 5588 5599 5611
5745 5737 5728 5720 5710 5701 5691 5682 5672 5662 5653 5643 5634 5625 5616 5607 5597 5587 5578 5568 5559 5551 5542 5534 5526 5519 5512 5507 5504 5502 5502 5503 5508 5514 5522 5530 5539 5548 5558 5568 5578 5588 5600
5740 5732 5723 5715 5705 5696 5686 5676 5666 5656 5647 5637 5628 5619 5610 5600 5591 5581 5571 5563 5554 5546 5537 5529 5522 5515 5510 5505 5503 5501 5501 5502 5506 5512 5519 5526 5533 5541 5550 5560 5570 5580 5591
5735 5727 5718 5710 5701 5691 5681 5671 5661 5651 5641 5631 5622 5613 5604 5595 5585 5575 5566 5558 5550 5542 5534 5526 5519 5513 5509 5505 5503 5502 5502 5504 5507 5512 5518 5524 5530 5537 5545 5554 5563 5573 5583
5729 5721 5713 5704 5695 5686 5676 5666 5656 5646 5636 5626 5617 5608 5600 5590 5581 5571 5562 5554 5546 5539 5531 5525 5518 5513 5509 5506 5504 5504 5504 5506 5509 5513 5518 5523 5529 5535 5542 5550 5558 5566 5576
5723 5716 5707 5699 5690 5681 5671 5661 5651 5641 5632 5622 5613 5604 5596 5586 5577 5568 5559 5551 5544 5537 5530 5524 5518 5513 5510 5507 5506 5505 5506 5508 5511 5515 5518 5523 5528 5534 5540 5547 5553 5561 5569